Wind_Speed
41 43 43 43 43 45 48 49 51 55 54 55 58 60 59 59 61 58 67 53 57 54 64 60 53 57 57 57 54 50 45 37 33 29 23 21 20 17 17 14 11 10 12 12 14
43 43 44 45 46 52 54 55 59 62 68 71 67 65 67 68 64 64 66 60 59 48 61 60 53 59 59 59 58 54 49 39 32 29 26 24 23 21 19 17 13 10 12 13 14
45 45 46 48 53 56 59 65 70 74 77 80 80 77 75 73 71 65 65 62 63 53 63 63 64 54 54 57 52 52 47 40 35 32 29 28 27 24 22 19 16 12 11 14 15
46 47 50 53 59 61 69 77 80 82 80 80 85 87 88 84 73 68 67 61 66 62 59 59 61 56 60 54 47 49 47 42 39 35 33 30 29 25 24 21 19 16 14 13 14
46 49 53 58 62 69 77 76 62 47 43 46 54 71 85 90 76 71 69 60 66 67 62 51 54 59 59 47 46 46 47 45 41 43 36 33 30 29 28 25 22 18 16 15 13
48 51 56 62 67 74 69 41 22 18 21 30 34 43 64 86 83 77 68 66 64 69 61 64 59 58 51 52 48 40 42 47 44 43 39 35 33 34 29 26 24 21 18 17 16
49 53 58 64 69 65 31 12 12 12 14 19 31 40 47 73 77 78 70 66 63 67 62 58 61 59 56 57 54 48 45 49 45 45 40 37 40 34 30 28 27 23 21 19 18
49 54 59 63 64 31 11 15 17 17 15 26 33 39 38 55 70 78 71 64 63 71 59 55 65 59 63 51 58 49 48 44 49 47 42 44 38 35 34 30 29 26 24 21 21
49 55 59 60 44 11 12 18 20 19 18 21 31 34 38 49 49 68 66 63 56 68 66 55 53 64 68 54 56 54 49 46 48 50 47 46 37 38 37 32 31 28 26 25 23
49 54 57 47 20 10 11 19 18 11 12 19 34 35 53 28 32 58 66 63 61 50 70 59 57 59 70 62 58 56 50 49 47 46 44 47 41 38 35 33 30 30 29 26 25
49 52 48 31 14 9 17 17 6 7 9 20 30 41 31 30 32 50 73 78 73 56 61 61 58 59 66 63 64 54 55 49 49 45 42 42 43 40 39 36 33 31 30 27 28
48 51 38 17 9 14 14 12 5 14 4 22 18 12 16 29 32 57 63 64 72 76 63 61 51 47 57 62 63 49 59 55 54 42 42 44 46 46 45 40 37 36 33 31 32
45 47 30 12 10 11 17 5 5 10 10 20 16 19 23 28 28 45 72 56 54 42 64 59 49 50 48 61 64 64 61 57 45 47 47 46 50 47 44 42 43 42 37 35 34
42 42 23 4 8 14 9 11 9 2 9 15 18 24 25 35 38 36 71 53 59 56 60 57 41 38 44 56 64 68 65 58 54 54 48 48 50 49 41 40 41 43 37 35 36
39 37 15 16 15 10 3 6 3 11 10 15 16 25 16 16 32 34 55 64 64 70 54 58 42 41 37 45 46 56 71 59 58 57 55 50 53 50 48 45 42 40 37 38 38
37 33 16 18 15 8 3 3 12 14 7 10 14 23 22 9 34 35 51 53 51 56 60 56 42 39 35 46 49 52 60 50 54 52 57 51 51 54 49 44 39 38 42 42 42
35 31 14 21 21 12 6 3 13 6 8 19 17 19 16 14 23 42 47 54 49 58 48 49 47 42 39 43 52 61 59 56 52 53 58 58 57 58 49 44 44 45 43 45 45
32 26 10 16 28 19 11 8 9 8 9 23 24 21 14 18 31 51 52 43 47 56 60 58 44 39 39 42 51 58 61 59 60 65 60 60 61 59 49 48 52 47 44 45 45
30 24 9 13 29 23 18 14 9 6 8 15 23 21 19 20 31 56 54 42 47 51 51 39 39 37 37 40 45 53 55 50 54 62 69 63 56 63 51 45 47 45 42 44 45
27 23 12 11 22 25 23 19 13 10 9 15 25 23 15 20 30 38 52 43 34 38 46 57 36 37 35 37 41 43 49 50 49 54 64 69 57 56 53 47 48 41 39 42 42
26 21 12 15 19 25 23 23 16 14 9 18 20 17 15 20 23 32 41 45 36 33 44 53 54 41 36 38 44 43 50 52 48 47 52 56 60 59 60 55 51 44 42 42 43
24 20 16 19 18 22 21 20 18 14 15 10 19 20 22 20 25 22 29 46 43 35 37 36 37 45 39 39 40 43 43 43 46 46 45 43 47 44 50 52 53 44 40 44 42
22 21 17 10 16 18 23 21 21 19 15 21 16 17 25 25 24 29 22 27 36 32 31 38 31 37 39 39 40 42 42 43 46 46 46 47 48 51 56 50 47 47 44 47 42
20 19 18 12 11 15 21 23 20 22 24 20 22 22 23 27 29 30 30 27 28 29 36 29 41 35 37 35 33 35 36 37 41 45 43 43 42 48 50 49 51 49 47 43 51
18 18 17 12 6 16 13 24 25 23 23 23 24 22 25 27 26 29 32 34 35 28 26 34 39 40 37 37 35 32 34 35 37 37 39 37 39 40 45 48 47 49 50 47 43
16 18 15 13 8 11 19 20 28 27 26 29 27 30 27 24 25 26 30 34 33 36 35 35 33 34 34 34 33 35 34 34 36 38 40 42 39 42 45 44 42 41 44 47 47
15 15 15 13 9 6 17 20 26 31 30 29 30 31 30 29 31 25 25 29 33 32 35 37 36 37 38 36 33 36 31 33 34 36 36 40 34 39 44 44 43 42 42 43 45
Wind_Direction
286 286 286 286 285 283 283 280 275 274 271 263 251 248 244 239 235 234 224 229 210 218 214 208 205 206 203 209 213 211 210 202 200 202 200 196 200 200 202 194 192 187 197 191 185
290 289 290 290 289 289 286 283 278 274 272 264 252 244 241 238 234 229 227 228 227 212 210 210 209 211 208 211 218 214 210 199 202 201 201 199 201 201 201 197 191 186 200 198 193
294 296 296 293 294 292 291 287 284 281 274 263 252 241 234 234 232 226 226 224 226 210 203 212 214 211 210 211 215 215 210 204 206 204 203 203 203 205 202 199 191 194 204 200 198
299 300 298 299 299 298 296 295 288 277 268 258 249 240 230 225 227 221 222 221 222 221 207 207 214 203 209 217 216 215 210 208 207 211 206 205 206 207 208 201 195 197 205 203 202
304 303 306 305 305 304 301 295 287 275 260 247 241 231 223 222 219 219 217 216 220 215 204 204 205 203 201 206 213 214 215 211 209 214 207 206 208 208 210 204 200 199 205 208 207
308 311 311 309 310 307 303 291 270 250 248 247 237 221 223 214 212 215 211 211 219 221 200 206 204 201 204 209 211 203 213 214 209 213 208 208 211 212 207 205 204 204 208 213 215
313 316 314 314 315 310 298 250 247 257 273 271 225 216 220 204 208 210 209 208 215 210 197 206 204 207 208 209 207 208 213 215 210 211 206 208 214 210 209 208 210 207 211 218 221
319 318 317 319 317 307 272 262 269 288 262 258 229 215 213 196 200 203 204 203 211 217 202 199 205 204 206 206 208 208 213 211 207 211 213 211 211 212 213 212 216 211 213 218 223
321 320 321 322 317 282 281 264 251 282 262 233 209 198 184 182 188 199 197 196 205 214 216 205 209 203 204 203 204 209 209 208 209 213 213 213 209 211 215 214 218 215 215 220 223
323 324 324 323 304 279 263 245 281 329 225 227 194 176 164 165 187 192 186 184 192 198 216 200 201 205 207 206 201 208 208 207 205 210 213 219 207 213 213 213 217 219 219 223 226
326 328 326 320 297 252 240 262 258 303 240 206 161 141 168 175 193 187 188 187 200 198 201 206 199 206 199 209 210 208 212 210 207 208 217 216 204 213 212 216 218 220 221 225 231
329 332 329 319 279 209 233 244 309 216 214 166 163 163 164 174 179 185 175 185 196 210 208 204 202 196 207 207 204 206 210 212 207 210 215 217 212 210 213 222 224 223 221 223 232
333 335 330 317 233 224 227 265 318 242 195 198 185 152 163 176 156 197 186 183 183 205 217 208 196 199 202 205 206 212 212 213 209 217 223 225 220 219 222 225 232 222 221 224 231
336 338 332 266 210 188 233 306 302 223 180 187 162 155 163 185 195 192 193 187 192 197 214 206 194 197 206 205 210 215 218 215 217 216 220 225 224 223 228 237 224 217 222 226 229
341 341 335 183 193 210 295 329 154 154 176 199 160 169 164 191 190 188 190 201 204 206 206 211 211 209 212 210 208 213 216 217 218 222 225 229 231 232 230 221 223 218 224 226 231
343 342 333 208 208 234 277 194 145 160 165 206 185 160 193 187 191 192 190 193 203 210 219 217 213 211 216 211 209 213 210 215 225 229 229 230 230 223 222 232 228 229 230 226 232
344 341 322 215 205 225 250 229 181 166 171 182 179 193 194 212 194 197 188 186 191 198 209 209 216 220 214 218 211 211 210 212 216 218 228 225 224 217 225 233 231 231 227 226 231
345 340 305 233 215 214 207 238 224 205 188 173 176 193 206 189 184 176 181 183 184 206 206 213 216 214 216 221 220 217 217 223 219 219 229 227 229 224 234 244 232 229 230 229 233
344 338 293 254 217 220 220 210 222 224 211 183 180 183 190 195 186 188 188 189 205 214 215 207 218 218 216 220 217 215 218 222 225 227 233 236 242 237 237 239 229 231 228 232 237
344 339 285 233 221 224 229 228 244 208 232 200 181 182 172 177 192 204 210 202 196 195 212 219 223 223 221 216 208 218 223 226 229 231 235 237 238 235 236 234 228 234 233 234 238
342 341 289 237 216 228 235 228 241 247 212 195 200 198 181 188 179 198 206 211 203 197 208 224 231 233 230 225 217 217 223 225 228 232 234 235 240 241 242 238 237 237 242 234 235
340 342 323 261 238 227 236 237 235 231 237 242 203 199 193 189 188 194 202 220 217 216 212 213 225 231 235 234 232 225 226 228 232 232 234 240 237 237 228 234 240 244 245 242 236
339 341 337 307 242 232 228 223 230 227 231 237 243 216 203 205 202 203 191 203 217 222 215 214 210 212 214 222 228 227 225 230 228 231 232 234 239 242 242 240 242 248 249 241 233
337 339 336 332 253 223 222 219 214 216 228 233 232 229 218 214 214 206 204 203 203 219 220 220 222 219 218 218 225 230 228 229 226 229 233 229 231 237 243 245 248 250 252 251 227
334 335 336 332 277 228 225 217 221 211 213 217 222 219 228 228 226 217 210 212 211 212 217 219 231 231 231 222 220 222 222 221 223 225 229 230 234 234 241 244 246 248 250 252 251
326 330 335 338 322 242 227 219 214 214 212 215 215 225 227 233 230 233 228 220 220 216 220 223 224 236 237 236 231 231 222 221 222 224 225 229 229 232 234 240 243 242 243 245 246
318 321 328 336 336 274 233 232 223 211 210 212 212 218 223 231 234 239 235 235 238 230 233 232 227 223 224 227 233 236 237 233 229 228 233 238 237 234 239 236 236 239 241 241 241
Height
5720 5716 5712 5708 5705 5704 5702 5700 5699 5696 5697 5699 5700 5701 5704 5710 5715 5721 5734 5745 5752 5755 5767 5774 5781 5787 5791 5798 5805 5811 5816 5823 5830 5835 5840 5842 5844 5848 5850 5853 5854 5855 5858 5860 5861
5707 5702 5698 5694 5690 5686 5683 5682 5680 5679 5674 5673 5679 5683 5686 5691 5698 5710 5726 5734 5741 5748 5757 5767 5773 5780 5785 5793 5799 5803 5811 5820 5827 5832 5836 5837 5841 5843 5847 5850 5852 5854 5856 5858 5860
5695 5690 5685 5679 5673 5667 5663 5658 5654 5649 5645 5640 5646 5656 5665 5667 5679 5701 5712 5725 5734 5741 5749 5758 5765 5774 5780 5787 5793 5800 5809 5817 5823 5828 5830 5834 5837 5840 5844 5848 5850 5852 5855 5856 5858
5682 5676 5669 5661 5654 5645 5635 5625 5615 5605 5599 5598 5603 5620 5633 5643 5663 5684 5697 5713 5722 5731 5739 5747 5755 5764 5774 5781 5789 5795 5805 5812 5819 5822 5826 5832 5834 5838 5841 5845 5847 5849 5853 5855 5856
5669 5661 5653 5644 5633 5620 5605 5588 5575 5569 5567 5569 5573 5584 5597 5622 5653 5668 5686 5701 5710 5722 5732 5740 5749 5758 5767 5776 5782 5790 5800 5806 5813 5819 5823 5826 5831 5833 5836 5841 5844 5847 5850 5852 5854
5656 5647 5637 5626 5612 5594 5577 5564 5560 5559 5560 5562 5563 5568 5578 5606 5637 5651 5671 5688 5699 5713 5722 5733 5744 5753 5762 5769 5776 5784 5794 5800 5807 5813 5818 5822 5827 5828 5833 5838 5841 5844 5847 5850 5851
5643 5632 5622 5608 5592 5573 5562 5560 5559 5558 5558 5559 5559 5560 5568 5600 5620 5637 5660 5678 5692 5705 5716 5729 5738 5744 5755 5762 5771 5779 5787 5793 5800 5807 5812 5817 5819 5824 5830 5833 5838 5841 5844 5847 5849
5631 5619 5607 5592 5575 5562 5559 5558 5557 5555 5553 5552 5553 5557 5567 5586 5605 5626 5650 5671 5686 5695 5707 5720 5729 5737 5746 5754 5763 5771 5777 5785 5793 5800 5806 5810 5818 5822 5826 5831 5834 5837 5840 5843 5845
5620 5609 5594 5579 5565 5559 5558 5556 5555 5554 5549 5547 5549 5555 5565 5582 5600 5622 5642 5664 5682 5688 5698 5708 5717 5727 5737 5746 5754 5761 5770 5778 5785 5792 5799 5804 5815 5815 5820 5825 5830 5833 5836 5838 5842
5611 5599 5583 5568 5561 5558 5558 5554 5554 5552 5547 5546 5548 5555 5570 5585 5598 5617 5639 5657 5670 5679 5688 5696 5705 5715 5724 5734 5743 5757 5766 5772 5779 5787 5793 5797 5808 5812 5816 5821 5825 5828 5830 5834 5838
5604 5590 5575 5563 5559 5558 5557 5557 5556 5557 5553 5551 5557 5566 5579 5587 5600 5613 5633 5647 5656 5667 5676 5687 5698 5708 5722 5732 5740 5751 5761 5770 5776 5782 5787 5792 5801 5806 5811 5815 5818 5822 5826 5829 5832
5597 5584 5570 5563 5558 5559 5560 5559 5558 5559 5560 5560 5564 5571 5580 5590 5601 5615 5628 5640 5651 5661 5670 5682 5694 5708 5716 5726 5736 5742 5752 5762 5765 5775 5781 5786 5794 5797 5804 5810 5813 5816 5819 5823 5825
5590 5578 5566 5562 5560 5562 5560 5562 5560 5561 5562 5564 5567 5573 5582 5592 5603 5614 5628 5639 5651 5659 5669 5681 5695 5701 5707 5716 5726 5735 5744 5753 5761 5770 5775 5780 5784 5788 5796 5802 5804 5808 5813 5816 5821
5586 5574 5564 5563 5565 5565 5565 5564 5561 5561 5564 5568 5572 5577 5585 5596 5603 5610 5623 5635 5645 5655 5664 5673 5684 5693 5702 5711 5723 5731 5739 5747 5755 5761 5766 5772 5777 5780 5787 5794 5796 5801 5806 5812 5815
5581 5572 5565 5563 5567 5568 5569 5567 5565 5567 5570 5572 5575 5581 5586 5594 5602 5607 5620 5635 5640 5650 5658 5668 5679 5689 5696 5704 5714 5722 5732 5741 5747 5753 5757 5764 5767 5774 5780 5784 5789 5795 5802 5806 5810
5578 5570 5565 5567 5569 5569 5570 5570 5569 5572 5570 5573 5577 5583 5588 5593 5598 5605 5616 5627 5637 5649 5656 5665 5676 5683 5691 5698 5706 5712 5723 5734 5739 5745 5748 5757 5758 5762 5770 5779 5785 5790 5795 5799 5801
5575 5568 5563 5565 5569 5570 5571 5571 5573 5572 5572 5575 5579 5584 5589 5593 5596 5606 5618 5629 5637 5645 5652 5659 5669 5678 5685 5689 5696 5704 5714 5722 5729 5735 5738 5747 5747 5756 5763 5770 5777 5782 5787 5791 5793
5573 5566 5562 5563 5568 5569 5573 5573 5573 5574 5574 5576 5581 5585 5589 5593 5598 5607 5617 5626 5634 5641 5650 5656 5665 5671 5678 5683 5692 5698 5707 5714 5718 5724 5729 5732 5741 5745 5759 5761 5768 5774 5778 5782 5786
5571 5564 5561 5561 5565 5567 5571 5574 5575 5575 5575 5579 5581 5585 5589 5593 5598 5606 5614 5626 5632 5635 5644 5654 5660 5667 5674 5679 5684 5689 5698 5707 5713 5719 5722 5726 5736 5740 5751 5754 5760 5768 5772 5776 5780
5570 5563 5559 5561 5562 5565 5569 5572 5575 5577 5578 5579 5581 5586 5590 5594 5599 5606 5613 5621 5627 5633 5641 5651 5655 5660 5667 5672 5677 5684 5692 5700 5704 5708 5713 5717 5723 5730 5739 5747 5755 5762 5764 5767 5771
5569 5563 5559 5559 5561 5564 5568 5571 5574 5577 5578 5581 5583 5587 5591 5596 5600 5604 5610 5618 5624 5631 5638 5645 5651 5656 5659 5663 5670 5677 5680 5687 5694 5700 5704 5710 5716 5722 5728 5740 5746 5749 5751 5756 5760
5566 5562 5558 5556 5561 5561 5565 5568 5572 5574 5578 5579 5583 5586 5590 5595 5598 5605 5608 5615 5622 5628 5633 5640 5644 5650 5653 5659 5663 5669 5674 5681 5687 5693 5697 5703 5709 5711 5718 5726 5735 5738 5742 5746 5751
5564 5560 5556 5555 5556 5558 5561 5565 5568 5572 5575 5579 5582 5584 5588 5592 5597 5601 5606 5612 5617 5622 5627 5634 5639 5643 5647 5652 5655 5660 5667 5672 5677 5681 5688 5695 5703 5704 5711 5716 5722 5726 5730 5735 5740
5563 5558 5555 5552 5552 5554 5557 5561 5565 5569 5572 5577 5581 5584 5587 5590 5594 5598 5601 5607 5611 5617 5623 5628 5633 5637 5642 5648 5652 5654 5659 5663 5668 5675 5681 5686 5691 5694 5700 5705 5711 5716 5719 5723 5726
5561 5557 5554 5550 5549 5551 5553 5557 5560 5564 5568 5573 5578 5580 5584 5586 5589 5593 5599 5603 5608 5612 5618 5622 5626 5630 5634 5640 5644 5648 5651 5655 5661 5669 5672 5680 5683 5690 5691 5694 5699 5703 5707 5713 5718
5559 5556 5552 5548 5546 5547 5549 5553 5556 5559 5563 5568 5573 5577 5580 5583 5587 5590 5593 5597 5601 5607 5610 5615 5619 5624 5629 5633 5637 5642 5646 5651 5655 5658 5662 5665 5673 5675 5680 5683 5689 5694 5697 5701 5705
5555 5554 5551 5547 5544 5545 5547 5549 5551 5554 5559 5563 5567 5571 5575 5579 5583 5586 5588 5592 5596 5599 5604 5609 5613 5618 5622 5626 5630 5636 5642 5644 5647 5650 5656 5659 5667 5666 5669 5676 5679 5682 5686 5689 5690